Current weather by "City, St" or "zip code"  
 

Current Conditions: Huntsville, Madison County Executive Airport, AL

Overcast


44.0 F

Last Updated on Apr 23 2021, 4:55 am CDT
Humidity: 80%
Wind Speed: N 0.0 mph
Barometer 30.13 in
Dewpoint: 38.3 F
Visibility: 10.00 mi
Precip: --
Heat Index: NA
Wind Chill: NA
Current conditions at:

Huntsville, Madison County Executive Airport, AL (KMDQ)

Lat: 34.86139 Lon: 86.55722

Local Radar Image active severe weather and emergency alerts image image weather storm and storm spotter reports image weather observation monitoring service image
Local
Radar
Active
Alerts
Storm Reports Obs
Monitoring

Sign-up For Email & Text Message Weather Alert Notification Services



Advertise Here

Observation History for Huntsville, Madison County Executive Airport, AL


Time Wind
(mph)
Vis
(mi)
Weather Precip (in) Temperature (F) Relative
Humidity
Wind
Chill
(F)
Heat
Index
(F)
Pressure
Air Dwpt altimeter
(in)
sea level
(mb)
Rmks
4:55 am CDT N 0.0 10.00 Overcast -- 44.0 38.3 80% NA NA 30.13 M
3:55 am CDT N 0.0 10.00 Mostly Cloudy -- 40.0 38.5 93% NA NA 30.13 M
2:55 am CDT N 0.0 10.00 Fair -- 41.0 38.8 92% NA NA 30.13 M
1:55 am CDT N 0.0 10.00 Fair -- 40.0 37.8 93% NA NA 30.13 M
12:55 am CDT N 0.0 10.00 Fair -- 41.0 38.5 91% NA NA 30.15 M
11:55 pm CDT N 0.0 10.00 Fair -- 42.0 38.1 86% NA NA 30.16 M
10:55 pm CDT N 0.0 10.00 Fair -- 45.0 37.6 76% NA NA 30.16 M
9:55 pm CDT N 0.0 10.00 Fair -- 46.0 38.3 76% NA NA 30.15 M
8:55 pm CDT N 0.0 10.00 Fair -- 49.0 38.5 67% NA NA 30.15 M
7:55 pm CDT SW 4.6 10.00 Fair -- 54.0 33.8 47% 53 NA 30.13 M
6:55 pm CDT SW 5.8 10.00 Fair -- 58.0 32.2 37% 57 NA 30.12 M
5:55 pm CDT SW 9.2 10.00 Fair -- 62.0 31.3 32% 61 NA 30.13 M
4:55 pm CDT SW 10.4 10.00 Partly Cloudy -- 63.0 31.6 31% 62 NA 30.14 M
3:55 pm CDT NW 3.5 10.00 Fair -- 62.0 30.9 31% NA NA 30.15 M
2:55 pm CDT SW 8.1 10.00 Partly Cloudy -- 62.0 31.3 32% 61 NA 30.18 M
1:55 pm CDT SW 5.8 10.00 Partly Cloudy -- 60.0 30.4 33% 60 NA 30.21 M
12:55 pm CDT SW 6.9 10.00 Partly Cloudy -- 58.0 30.6 35% 57 NA 30.22 M
11:55 am CDT SW 5.8 10.00 Partly Cloudy -- 57.0 29.8 36% 56 NA 30.24 M
10:55 am CDT SW 9.2 10.00 Fair -- 55.0 29.3 37% 52 NA 30.26 M
9:55 am CDT SW 6.9 10.00 Fair -- 52.0 28.2 41% 50 NA 30.26 M
8:55 am CDT S 4.6 10.00 Fair -- 47.0 31.8 56% 45 NA 30.26 M
7:55 am CDT SE 3.5 10.00 Fair -- 38.0 34.0 84% NA NA 30.26 M
6:55 am CDT N 0.0 7.00 Fog/Mist -- 33.0 31.5 96% NA NA 30.25 M
6:35 am CDT N 0.0 4.00 Fog/Mist -- 31.0 30.6 96% NA NA 30.23 M

Regional Weather Observation


Huntsville, Madison County Executive Airport, AL (KMDQ)

Overcast
44.0 F

Pulaski Abernathy Field Airport, TN (KGZS)

Overcast
43.0 F

Ellington Airport, TN (KLUG)

Overcast
43.0 F

Redstone Airfield, AL (KHUA)

Overcast
47.0 F

Decatur, Pryor Field, AL (KDCU)

Overcast
47.0 F

Huntsville, Huntsville International / Jones Field, AL (KHSV)

Overcast
48.0 F

Advertise Here


Advertise Here